| time (UTC) | temp F | wind direction | speed MPH | gust MPH | rain 1hr in | rain 24hr in | rain mn in | humidity % | barometer mb |
| 20260504225405 | 70 | 0 | 0.0 | 1.0 | 0.22 | 0.53 | 0.48 | 94 | 1013.9 |
| 20260504224404 | 70 | 333 | 1.0 | 3.0 | 0.34 | 0.51 | 0.46 | 94 | 1013.8 |
| 20260504223904 | 70 | 44 | 0.0 | 3.0 | 0.36 | 0.50 | 0.45 | 94 | 1013.8 |
| 20260504223404 | 69 | 343 | 1.0 | 3.0 | 0.36 | 0.50 | 0.45 | 94 | 1013.6 |
| 20260504222903 | 69 | 37 | 1.0 | 3.0 | 0.35 | 0.49 | 0.44 | 94 | 1013.7 |
| 20260504221904 | 70 | 320 | 0.0 | 1.0 | 0.33 | 0.47 | 0.42 | 93 | 1013.6 |
| 20260504221404 | 70 | 335 | 1.0 | 2.0 | 0.31 | 0.45 | 0.40 | 93 | 1013.6 |
| 20260504220904 | 70 | 335 | 0.0 | 1.0 | 0.29 | 0.43 | 0.38 | 93 | 1013.5 |
| 20260504220404 | 70 | 33 | 1.0 | 3.0 | 0.26 | 0.40 | 0.35 | 92 | 1013.5 |
| 20260504215904 | 70 | 343 | 0.0 | 1.0 | 0.22 | 0.36 | 0.31 | 92 | 1013.6 |
| 20260504215404 | 71 | 35 | 0.0 | 3.0 | 0.17 | 0.31 | 0.26 | 92 | 1013.7 |
| 20260504214904 | 71 | 358 | 0.0 | 1.0 | 0.11 | 0.25 | 0.20 | 91 | 1013.7 |
| 20260504214404 | 71 | 313 | 0.0 | 1.0 | 0.03 | 0.17 | 0.12 | 90 | 1013.7 |
| 20260504213904 | 71 | 317 | 0.0 | 1.0 | 0.00 | 0.14 | 0.09 | 90 | 1013.6 |
| 20260504213404 | 71 | 318 | 0.0 | 1.0 | 0.01 | 0.14 | 0.09 | 90 | 1013.4 |
| 20260504212905 | 71 | 328 | 0.0 | 1.0 | 0.01 | 0.14 | 0.09 | 90 | 1013.2 |
| 20260504212404 | 71 | 338 | 0.0 | 2.0 | 0.01 | 0.14 | 0.09 | 90 | 1013.1 |
| 20260504211904 | 71 | 337 | 0.0 | 3.0 | 0.01 | 0.14 | 0.09 | 89 | 1013.2 |
| 20260504205904 | 72 | 304 | 0.0 | 0.0 | 0.01 | 0.14 | 0.09 | 89 | 1013.2 |
| 20260504205404 | 72 | 305 | 0.0 | 1.0 | 0.01 | 0.14 | 0.09 | 89 | 1013.3 |
| 20260504204903 | 72 | 332 | 0.0 | 1.0 | 0.01 | 0.14 | 0.09 | 89 | 1013.2 |
| 20260504204404 | 72 | 313 | 0.0 | 0.0 | 0.01 | 0.14 | 0.09 | 89 | 1013.3 |
| 20260504203904 | 72 | 314 | 0.0 | 1.0 | 0.01 | 0.14 | 0.09 | 89 | 1013.2 |
| 20260504203404 | 72 | 314 | 0.0 | 1.0 | 0.01 | 0.14 | 0.09 | 89 | 1013.2 |
| 20260504202904 | 72 | 314 | 0.0 | 1.0 | 0.01 | 0.14 | 0.09 | 89 | 1013.1 |
| 20260504202404 | 72 | 311 | 0.0 | 1.0 | 0.00 | 0.13 | 0.08 | 89 | 1013.0 |
| 20260504201904 | 72 | 312 | 0.0 | 2.0 | 0.00 | 0.13 | 0.08 | 89 | 1012.9 |
| 20260504201404 | 72 | 34 | 1.0 | 3.0 | 0.00 | 0.13 | 0.08 | 89 | 1013.0 |
| 20260504195904 | 72 | 301 | 0.0 | 1.0 | 0.00 | 0.13 | 0.08 | 90 | 1013.0 |
| 20260504195404 | 72 | 358 | 0.0 | 1.0 | 0.01 | 0.13 | 0.08 | 90 | 1013.0 |
| 20260504194904 | 72 | 300 | 0.0 | 2.0 | 0.01 | 0.13 | 0.08 | 91 | 1013.1 |
| 20260504194404 | 72 | 255 | 1.0 | 3.0 | 0.01 | 0.13 | 0.08 | 91 | 1013.1 |
| 20260504193404 | 72 | 319 | 0.0 | 2.0 | 0.01 | 0.13 | 0.08 | 91 | 1012.9 |
| 20260504192404 | 72 | 310 | 0.0 | 2.0 | 0.01 | 0.13 | 0.08 | 91 | 1012.9 |
| 20260504191904 | 72 | 326 | 0.0 | 1.0 | 0.01 | 0.13 | 0.08 | 91 | 1012.9 |
| 20260504191404 | 72 | 348 | 0.0 | 1.0 | 0.01 | 0.13 | 0.08 | 91 | 1012.9 |
| 20260504190904 | 72 | 343 | 0.0 | 1.0 | 0.02 | 0.13 | 0.08 | 91 | 1012.9 |
| 20260504190404 | 72 | 311 | 0.0 | 1.0 | 0.02 | 0.13 | 0.08 | 91 | 1013.0 |
| 20260504185904 | 72 | 4 | 0.0 | 1.0 | 0.04 | 0.13 | 0.08 | 91 | 1013.0 |
| 20260504185404 | 72 | 60 | 1.0 | 5.0 | 0.04 | 0.12 | 0.07 | 91 | 1013.1 |
| 20260504184905 | 72 | 15 | 1.0 | 2.0 | 0.07 | 0.12 | 0.07 | 91 | 1013.2 |
| 20260504184405 | 72 | 2 | 0.0 | 5.0 | 0.07 | 0.12 | 0.07 | 91 | 1013.1 |
| 20260504183904 | 72 | 346 | 0.0 | 0.0 | 0.07 | 0.12 | 0.07 | 91 | 1013.2 |
| 20260504183404 | 72 | 39 | 1.0 | 3.0 | 0.07 | 0.12 | 0.07 | 92 | 1013.3 |
| 20260504182904 | 72 | 47 | 1.0 | 3.0 | 0.07 | 0.12 | 0.07 | 91 | 1013.2 |
| 20260504182404 | 72 | 355 | 0.0 | 3.0 | 0.07 | 0.12 | 0.07 | 91 | 1013.3 |
| 20260504181904 | 72 | 316 | 0.0 | 3.0 | 0.07 | 0.12 | 0.07 | 92 | 1013.3 |
| 20260504181404 | 73 | 6 | 2.0 | 5.0 | 0.07 | 0.12 | 0.07 | 91 | 1013.5 |
| 20260504180904 | 73 | 5 | 0.0 | 3.0 | 0.06 | 0.11 | 0.06 | 91 | 1013.8 |
| 20260504180404 | 73 | 23 | 0.0 | 3.0 | 0.06 | 0.11 | 0.06 | 90 | 1013.9 |
| 20260504175904 | 74 | 314 | 0.0 | 0.0 | 0.04 | 0.09 | 0.04 | 90 | 1013.9 |
| 20260504175404 | 74 | 10 | 0.0 | 0.0 | 0.03 | 0.08 | 0.03 | 89 | 1014.0 |
| 20260504174404 | 74 | 3 | 1.0 | 3.0 | 0.00 | 0.05 | 0.00 | 88 | 1014.0 |
| 20260504173905 | 74 | 349 | 1.0 | 3.0 | 0.00 | 0.05 | 0.00 | 88 | 1014.1 |
| 20260504173404 | 74 | 3 | 1.0 | 2.0 | 0.00 | 0.05 | 0.00 | 87 | 1014.0 |
| 20260504172904 | 74 | 43 | 2.0 | 5.0 | 0.00 | 0.05 | 0.00 | 87 | 1014.1 |
| 20260504172404 | 74 | 5 | 1.0 | 6.0 | 0.00 | 0.05 | 0.00 | 86 | 1014.1 |
| 20260504171903 | 74 | 325 | 0.0 | 1.0 | 0.00 | 0.05 | 0.00 | 86 | 1014.2 |
| 20260504171403 | 74 | 62 | 1.0 | 3.0 | 0.00 | 0.05 | 0.00 | 86 | 1014.2 |
| 20260504170904 | 74 | 48 | 1.0 | 2.0 | 0.00 | 0.05 | 0.00 | 86 | 1014.3 |
| 20260504160404 | 73 | 329 | 0.0 | 2.0 | 0.00 | 0.05 | 0.00 | 88 | 1014.4 |
| 20260504150904 | 73 | 328 | 0.0 | 3.0 | 0.01 | 0.09 | 0.05 | 92 | 1015.2 |
| 20260504150404 | 73 | 347 | 0.0 | 1.0 | 0.01 | 0.10 | 0.05 | 92 | 1015.2 |
| 20260504140904 | 74 | 28 | 0.0 | 3.0 | 0.00 | 0.17 | 0.04 | 92 | 1014.8 |
| 20260504140404 | 74 | 10 | 1.0 | 2.0 | 0.00 | 0.19 | 0.04 | 92 | 1014.7 |
| 20260504130404 | 74 | 317 | 0.0 | 0.0 | 0.00 | 0.37 | 0.04 | 92 | 1014.6 |
| 20260504081904 | 78 | 35 | 4.0 | 7.0 | 0.00 | 0.81 | 0.00 | 80 | 1013.5 |
| 20260504081404 | 78 | 23 | 2.0 | 7.0 | 0.00 | 0.81 | 0.00 | 80 | 1013.6 |
| 20260504080904 | 78 | 17 | 1.0 | 3.0 | 0.00 | 0.81 | 0.00 | 80 | 1013.7 |
| 20260504080404 | 78 | 8 | 3.0 | 8.0 | 0.00 | 0.82 | 0.00 | 79 | 1013.7 |
| 20260504070404 | 78 | 44 | 4.0 | 8.0 | 0.00 | 1.51 | 0.00 | 77 | 1014.7 |
| 20260504050404 | 81 | 38 | 2.0 | 3.0 | 0.00 | 2.49 | 0.00 | 69 | 1015.1 |
| 20260504045904 | 81 | 329 | 1.0 | 3.0 | 0.00 | 2.49 | 0.00 | 69 | 1015.1 |
| 20260504045404 | 81 | 17 | 1.0 | 3.0 | 0.00 | 2.49 | 0.00 | 70 | 1015.1 |
| 20260504044904 | 81 | 58 | 1.0 | 5.0 | 0.00 | 2.49 | 0.00 | 70 | 1015.1 |
| 20260504044404 | 80 | 37 | 1.0 | 5.0 | 0.00 | 2.49 | 0.00 | 70 | 1015.1 |
| 20260504043904 | 80 | 296 | 1.0 | 5.0 | 0.00 | 2.49 | 0.00 | 71 | 1015.1 |
| 20260504042903 | 80 | 11 | 1.0 | 3.0 | 0.00 | 2.49 | 0.00 | 71 | 1015.1 |
| 20260504042404 | 80 | 26 | 0.0 | 3.0 | 0.00 | 2.49 | 0.00 | 72 | 1015.2 |
| 20260504041904 | 80 | 55 | 3.0 | 8.0 | 0.00 | 2.49 | 0.00 | 71 | 1015.2 |
| 20260504041404 | 80 | 330 | 1.0 | 3.0 | 0.00 | 2.49 | 0.00 | 73 | 1015.2 |
| 20260504040904 | 80 | 24 | 2.0 | 5.0 | 0.00 | 2.49 | 0.00 | 73 | 1015.3 |
| 20260504040404 | 79 | 326 | 1.0 | 3.0 | 0.00 | 2.49 | 0.00 | 74 | 1015.5 |
| 20260504035904 | 79 | 48 | 1.0 | 3.0 | 0.00 | 2.49 | 0.00 | 74 | 1015.5 |
| 20260504035404 | 79 | 23 | 1.0 | 5.0 | 0.00 | 2.49 | 0.00 | 74 | 1015.5 |
| 20260504034404 | 79 | 61 | 3.0 | 8.0 | 0.00 | 2.49 | 0.00 | 74 | 1015.6 |
| 20260504033904 | 79 | 328 | 1.0 | 3.0 | 0.00 | 2.49 | 0.00 | 74 | 1015.5 |
| 20260504032903 | 79 | 327 | 1.0 | 3.0 | 0.00 | 2.49 | 0.00 | 73 | 1015.5 |
| 20260504032404 | 79 | 47 | 3.0 | 7.0 | 0.00 | 2.49 | 0.00 | 72 | 1015.4 |
| 20260504031905 | 79 | 5 | 3.0 | 8.0 | 0.00 | 2.49 | 0.00 | 72 | 1015.4 |
| 20260504030904 | 79 | 54 | 2.0 | 5.0 | 0.00 | 2.49 | 0.00 | 72 | 1015.5 |
| 20260504025904 | 79 | 343 | 0.0 | 1.0 | 0.00 | 2.49 | 0.00 | 72 | 1015.8 |
| 20260504025404 | 78 | 53 | 0.0 | 7.0 | 0.00 | 2.49 | 0.00 | 73 | 1015.9 |
| 20260504024904 | 78 | 54 | 4.0 | 10.0 | 0.00 | 2.49 | 0.00 | 73 | 1015.8 |
| 20260504023904 | 79 | 34 | 1.0 | 3.0 | 0.00 | 2.49 | 0.00 | 74 | 1015.7 |
| 20260504022904 | 78 | 59 | 3.0 | 6.0 | 0.00 | 2.49 | 0.00 | 74 | 1015.7 |
| 20260504022404 | 78 | 64 | 3.0 | 7.0 | 0.00 | 2.49 | 0.00 | 73 | 1015.7 |
| 20260504021904 | 78 | 68 | 2.0 | 9.0 | 0.00 | 2.49 | 0.00 | 73 | 1015.6 |
| 20260504021403 | 79 | 31 | 2.0 | 6.0 | 0.00 | 2.49 | 0.00 | 73 | 1015.4 |
| 20260504020404 | 79 | 42 | 3.0 | 5.0 | 0.00 | 2.49 | 0.00 | 71 | 1015.5 |
| 20260504015904 | 78 | 328 | 0.0 | 3.0 | 0.00 | 2.49 | 0.00 | 71 | 1015.6 |
| 20260504015403 | 78 | 335 | 0.0 | 3.0 | 0.00 | 2.49 | 0.00 | 71 | 1015.5 |
| 20260504014904 | 78 | 331 | 1.0 | 2.0 | 0.00 | 2.49 | 0.00 | 71 | 1015.4 |
| 20260504013903 | 77 | 7 | 1.0 | 3.0 | 0.00 | 2.49 | 0.00 | 71 | 1015.6 |
| 20260504012404 | 77 | 314 | 1.0 | 3.0 | 0.00 | 2.49 | 0.00 | 71 | 1015.3 |
| 20260504011904 | 77 | 38 | 2.0 | 3.0 | 0.00 | 2.49 | 0.00 | 71 | 1015.2 |
| 20260504011404 | 77 | 306 | 0.0 | 2.0 | 0.00 | 2.49 | 0.00 | 71 | 1015.2 |
| 20260504010904 | 77 | 307 | 1.0 | 5.0 | 0.00 | 2.49 | 0.00 | 72 | 1015.1 |
| 20260504010404 | 77 | 340 | 0.0 | 3.0 | 0.00 | 2.49 | 0.00 | 73 | 1015.0 |
| 20260504005904 | 76 | 64 | 2.0 | 3.0 | 0.00 | 2.49 | 0.00 | 73 | 1015.0 |
| 20260504005404 | 76 | 54 | 1.0 | 3.0 | 0.00 | 2.49 | 0.00 | 73 | 1015.0 |
| 20260504004904 | 76 | 40 | 1.0 | 3.0 | 0.00 | 2.49 | 0.00 | 74 | 1015.0 |
| 20260504004404 | 76 | 323 | 1.0 | 2.0 | 0.00 | 2.49 | 0.00 | 75 | 1014.9 |
| 20260504003904 | 76 | 349 | 1.0 | 3.0 | 0.00 | 2.49 | 0.00 | 75 | 1015.1 |
| 20260504003404 | 76 | 60 | 2.0 | 3.0 | 0.00 | 2.49 | 0.00 | 75 | 1015.1 |
| 20260504002404 | 75 | 49 | 0.0 | 2.0 | 0.00 | 2.49 | 0.00 | 76 | 1015.1 |
| 20260504001904 | 75 | 55 | 2.0 | 3.0 | 0.00 | 2.49 | 0.00 | 77 | 1015.0 |
| 20260504001405 | 75 | 51 | 2.0 | 5.0 | 0.00 | 2.49 | 0.00 | 77 | 1014.9 |
| 20260504000904 | 75 | 19 | 0.0 | 5.0 | 0.00 | 2.49 | 0.00 | 78 | 1014.8 |
| 20260504000404 | 75 | 350 | 2.0 | 3.0 | 0.00 | 2.49 | 0.00 | 77 | 1014.9 |
| 20260503235404 | 75 | 312 | 0.0 | 2.0 | 0.00 | 2.49 | 0.00 | 77 | 1014.6 |
| 20260503234404 | 74 | 281 | 0.0 | 0.0 | 0.00 | 2.49 | 0.00 | 78 | 1014.5 |
| 20260503233404 | 74 | 8 | 0.0 | 3.0 | 0.00 | 2.49 | 0.00 | 81 | 1014.3 |
| 20260503232904 | 74 | 50 | 1.0 | 2.0 | 0.00 | 2.49 | 0.00 | 82 | 1014.1 |
| 20260503232404 | 74 | 347 | 0.0 | 0.0 | 0.00 | 2.49 | 0.00 | 82 | 1014.3 |
| 20260503231905 | 74 | 359 | 0.0 | 0.0 | 0.00 | 2.49 | 0.00 | 83 | 1014.2 |
| 20260503231404 | 74 | 27 | 1.0 | 3.0 | 0.00 | 2.49 | 0.00 | 82 | 1014.1 |
| 20260503230904 | 74 | 21 | 0.0 | 3.0 | 0.00 | 2.49 | 0.00 | 81 | 1013.9 |
| 20260503230404 | 74 | 1 | 0.0 | 0.0 | 0.00 | 2.49 | 0.00 | 81 | 1014.0 |
| 20260503225904 | 74 | 5 | 0.0 | 3.0 | 0.00 | 2.49 | 0.00 | 80 | 1013.9 |